FW9229 Weather Reports


Display with metric or nautical units.
time (UTC)temp
F
wind
direction
speed
MPH
gust
MPH
rain 1hr
in
rain 24hr
in
rain mn
in
humidity
%
barometer
mb
20260904195520 98 186 4.0 10.0 0.00 0.00 0.00 44 1013.0
20260904195019 98 242 3.0 8.0 0.00 0.00 0.00 44 1013.0
20260904194551 97 218 3.0 11.0 0.00 0.00 0.00 45 1013.0
20260904194017 97 0 3.0 13.0 0.00 0.00 0.00 45 1013.2
20260904193522 98 202 6.0 13.0 0.00 0.00 0.00 44 1013.2
20260904193041 98 208 1.0 9.0 0.00 0.00 0.00 45 1013.1
20260904192520 97 130 2.0 9.0 0.00 0.00 0.00 46 1013.1
20260904192025 96 235 4.0 9.0 0.00 0.00 0.00 46 1013.2
20260904191543 97 221 4.0 9.0 0.00 0.00 0.00 45 1013.2
20260904191021 96 220 2.0 9.0 0.00 0.00 0.00 46 1013.3
20260904190520 96 195 2.0 10.0 0.00 0.00 0.00 47 1013.4
20260904190037 96 0 2.0 10.0 0.00 0.00 0.00 46 1013.5
20260904185517 96 216 3.0 8.0 0.00 0.00 0.00 46 1013.6
20260904185020 96 211 1.0 10.0 0.00 0.00 0.00 47 1013.7
20260904184541 96 213 4.0 10.0 0.00 0.00 0.00 47 1013.8
20260904184018 95 204 0.0 12.0 0.00 0.00 0.00 48 1013.9
20260904183518 95 195 1.0 12.0 0.00 0.00 0.00 48 1014.0
20260904183041 95 0 1.0 9.0 0.00 0.00 0.00 49 1014.0
20260904182520 95 166 2.0 10.0 0.00 0.00 0.00 49 1014.1
20260904182023 95 221 4.0 10.0 0.00 0.00 0.00 50 1014.1
20260904181549 95 0 2.0 11.0 0.00 0.00 0.00 48 1014.2
20260904181017 95 202 3.0 11.0 0.00 0.00 0.00 50 1014.2
20260904180516 95 141 0.0 9.0 0.00 0.00 0.00 51 1014.3
20260904180038 94 0 2.0 9.0 0.00 0.00 0.00 53 1014.4
20260904175520 94 204 4.0 8.0 0.00 0.00 0.00 53 1014.5
20260904175019 93 168 2.0 7.0 0.00 0.00 0.00 54 1014.4
20260904174559 92 217 2.0 9.0 0.00 0.00 0.00 56 1014.5
20260904174019 92 241 3.0 9.0 0.00 0.00 0.00 55 1014.6
20260904173519 93 0 1.0 7.0 0.00 0.00 0.00 54 1014.6
20260904173037 92 182 0.0 7.0 0.00 0.00 0.00 55 1014.6
20260904172521 93 0 2.0 11.0 0.00 0.00 0.00 56 1014.6
20260904172020 92 187 3.0 11.0 0.00 0.00 0.00 57 1014.6
20260904171540 91 186 1.0 9.0 0.00 0.00 0.00 58 1014.5
20260904171019 92 202 2.0 9.0 0.00 0.00 0.00 57 1014.6
20260904170520 91 198 1.0 7.0 0.00 0.00 0.00 59 1014.7
20260904170035 90 0 0.0 9.0 0.00 0.00 0.00 60 1014.7
20260904165521 90 180 3.0 9.0 0.00 0.00 0.00 61 1014.8
20260904165018 90 179 0.0 6.0 0.00 0.00 0.00 62 1014.8
20260904164537 89 0 2.0 8.0 0.00 0.00 0.00 63 1014.9
20260904164017 90 187 2.0 8.0 0.00 0.00 0.00 62 1015.1
20260904163517 89 154 3.0 8.0 0.00 0.00 0.00 62 1015.0
20260904163048 90 220 1.0 8.0 0.00 0.00 0.00 62 1015.0
20260904162520 90 200 3.0 9.0 0.00 0.00 0.00 62 1014.9
20260904162019 89 0 3.0 9.0 0.00 0.00 0.00 64 1014.9
20260904161537 89 161 3.0 8.0 0.00 0.00 0.00 64 1015.0
20260904161019 89 175 3.0 12.0 0.00 0.00 0.00 64 1015.0
20260904160518 88 179 2.0 12.0 0.00 0.00 0.00 65 1014.9
20260904160039 88 215 1.0 10.0 0.00 0.00 0.00 67 1015.0
20260904155522 88 189 2.0 6.0 0.00 0.00 0.00 68 1014.9
20260904155017 88 247 0.0 7.0 0.00 0.00 0.00 69 1014.8
20260904154543 87 190 3.0 7.0 0.00 0.00 0.00 70 1014.9
20260904154018 87 177 1.0 7.0 0.00 0.00 0.00 70 1014.9
20260904153518 87 215 1.0 7.0 0.00 0.00 0.00 72 1014.9
20260904153046 86 131 0.0 8.0 0.00 0.00 0.00 73 1014.9
20260904152519 86 202 2.0 8.0 0.00 0.00 0.00 74 1014.9
20260904152020 85 200 2.0 7.0 0.00 0.00 0.00 75 1014.8
20260904151539 85 0 2.0 8.0 0.00 0.00 0.00 77 1014.7
20260904151018 84 139 3.0 8.0 0.00 0.00 0.00 77 1014.7
20260904150518 84 211 2.0 7.0 0.00 0.00 0.00 78 1014.6
20260904150046 84 144 1.0 9.0 0.00 0.00 0.00 78 1014.7
20260904145520 84 189 3.0 9.0 0.00 0.00 0.00 79 1014.8
20260904145020 83 217 2.0 8.0 0.00 0.00 0.00 80 1014.7
20260904144538 83 0 1.0 9.0 0.00 0.00 0.00 81 1014.7
20260904144020 83 0 2.0 9.0 0.00 0.00 0.00 81 1014.7
20260904143520 83 203 2.0 9.0 0.00 0.00 0.00 82 1014.8
20260904143039 82 208 3.0 10.0 0.00 0.00 0.00 83 1014.7
20260904142520 82 198 4.0 10.0 0.00 0.00 0.00 83 1014.8
20260904142023 82 0 2.0 6.0 0.00 0.00 0.00 84 1014.6
20260904141538 81 0 1.0 6.0 0.00 0.00 0.00 84 1014.7
20260904141030 81 0 1.0 6.0 0.00 0.00 0.00 85 1014.7
20260904140519 81 0 0.0 6.0 0.00 0.00 0.00 85 1014.8
20260904140043 80 203 1.0 6.0 0.00 0.00 0.00 86 1014.7
20260904135521 80 197 1.0 11.0 0.00 0.00 0.00 87 1014.7
20260904135020 80 208 3.0 11.0 0.00 0.00 0.00 87 1014.6
20260904134546 80 0 1.0 10.0 0.00 0.00 0.00 87 1014.6
20260904134017 80 189 3.0 10.0 0.00 0.00 0.00 87 1014.6
20260904133518 80 205 1.0 9.0 0.00 0.00 0.00 88 1014.5
20260904133042 79 0 2.0 10.0 0.00 0.00 0.00 88 1014.5
20260904132518 79 0 4.0 10.0 0.00 0.00 0.00 88 1014.3
20260904132020 79 173 2.0 8.0 0.00 0.00 0.00 88 1014.3
20260904131540 79 225 3.0 8.0 0.00 0.00 0.00 88 1014.2
20260904131019 79 0 1.0 9.0 0.00 0.00 0.00 89 1014.3
20260904130523 79 209 2.0 9.0 0.00 0.00 0.00 89 1014.2
20260904130039 78 0 1.0 7.0 0.00 0.00 0.00 89 1014.1
20260904125516 78 0 0.0 4.0 0.00 0.00 0.00 89 1014.0
20260904125024 78 0 0.0 6.0 0.00 0.00 0.00 89 1013.9
20260904124541 78 198 1.0 6.0 0.00 0.00 0.00 89 1014.0
20260904124018 78 183 0.0 4.0 0.00 0.00 0.00 89 1013.9
20260904123520 78 206 0.0 4.0 0.00 0.00 0.00 89 1013.9
20260904123103 78 0 0.0 4.0 0.00 0.00 0.00 89 1013.8
20260904122519 78 0 0.0 4.0 0.00 0.00 0.00 89 1013.9
20260904122020 78 0 0.0 3.0 0.00 0.00 0.00 88 1013.9
20260904121539 78 0 0.0 3.0 0.00 0.00 0.00 88 1013.7
20260904121023 78 0 0.0 4.0 0.00 0.00 0.00 88 1013.9
20260904120520 78 0 0.0 4.0 0.00 0.00 0.00 88 1013.8
20260904120040 77 0 1.0 4.0 0.00 0.00 0.00 88 1013.7
20260904115519 78 0 0.0 5.0 0.00 0.00 0.00 88 1013.7
20260904115022 77 0 1.0 5.0 0.00 0.00 0.00 88 1013.8
20260904114538 77 210 0.0 3.0 0.00 0.00 0.00 87 1013.7
20260904114018 77 0 0.0 3.0 0.00 0.00 0.00 87 1013.6
20260904113518 77 0 0.0 0.0 0.00 0.00 0.00 87 1013.6
20260904113048 77 0 0.0 0.0 0.00 0.00 0.00 87 1013.6
20260904112517 77 0 0.0 0.0 0.00 0.00 0.00 86 1013.6
20260904112018 78 0 0.0 0.0 0.00 0.00 0.00 86 1013.6
20260904111540 78 0 0.0 3.0 0.00 0.00 0.00 86 1013.6
20260904111018 78 0 0.0 4.0 0.00 0.00 0.00 86 1013.6
20260904110520 78 0 0.0 4.0 0.00 0.00 0.00 86 1013.6
20260904110046 78 0 0.0 1.0 0.00 0.00 0.00 86 1013.5
20260904105518 78 0 0.0 2.0 0.00 0.00 0.00 86 1013.6
20260904105018 78 0 0.0 3.0 0.00 0.00 0.00 86 1013.4
20260904104537 78 0 0.0 3.0 0.00 0.00 0.00 86 1013.3
20260904104018 78 0 0.0 3.0 0.00 0.00 0.00 86 1013.3
20260904103520 78 0 0.0 3.0 0.00 0.00 0.00 86 1013.3
20260904103037 78 0 0.0 4.0 0.00 0.00 0.00 86 1013.2
20260904102522 78 0 0.0 4.0 0.00 0.00 0.00 85 1013.3
20260904102020 78 0 0.0 3.0 0.00 0.00 0.00 85 1013.3
20260904101544 78 0 0.0 4.0 0.00 0.00 0.00 85 1013.2
20260904101017 78 0 0.0 4.0 0.00 0.00 0.00 85 1013.2
20260904100517 78 0 0.0 3.0 0.00 0.00 0.00 85 1013.3
20260904100041 78 0 0.0 4.0 0.00 0.00 0.00 85 1013.1
20260904095520 78 0 0.0 4.0 0.00 0.00 0.00 84 1013.2
20260904095022 78 0 0.0 4.0 0.00 0.00 0.00 84 1013.2
20260904094539 78 0 0.0 4.0 0.00 0.00 0.00 84 1013.1
20260904094018 78 247 0.0 5.0 0.00 0.00 0.00 84 1013.1
20260904093520 78 0 0.0 5.0 0.00 0.00 0.00 84 1013.2
20260904093052 78 224 0.0 4.0 0.00 0.00 0.00 83 1013.1
20260904092519 79 0 1.0 4.0 0.00 0.00 0.00 83 1013.2
20260904092017 79 102 0.0 5.0 0.00 0.00 0.00 83 1013.2
20260904091537 79 206 1.0 5.0 0.00 0.00 0.00 83 1013.3
20260904091018 79 206 0.0 5.0 0.00 0.00 0.00 83 1013.2
20260904090521 79 0 0.0 5.0 0.00 0.00 0.00 83 1013.2
20260904090040 79 0 1.0 4.0 0.00 0.00 0.00 82 1013.2
20260904085520 79 0 0.0 4.0 0.00 0.00 0.00 82 1013.2
20260904085020 79 0 1.0 4.0 0.00 0.00 0.00 82 1013.2
20260904084541 79 0 0.0 8.0 0.00 0.00 0.00 82 1013.2
20260904084018 79 0 0.0 8.0 0.00 0.00 0.00 82 1013.1
20260904083521 79 189 2.0 5.0 0.00 0.00 0.00 82 1013.1
20260904083040 79 0 0.0 5.0 0.00 0.00 0.00 81 1013.1
20260904082518 79 0 0.0 5.0 0.00 0.00 0.00 82 1013.0
20260904082022 79 0 0.0 5.0 0.00 0.00 0.00 81 1013.0
20260904081543 79 0 1.0 5.0 0.00 0.00 0.00 81 1013.0
20260904081018 79 0 0.0 5.0 0.00 0.00 0.00 81 1013.0
20260904080522 79 0 1.0 5.0 0.00 0.00 0.00 81 1013.0
20260904080042 79 0 0.0 6.0 0.00 0.00 0.00 81 1013.0
20260904075518 79 0 0.0 6.0 0.00 0.00 0.00 81 1013.0
20260904075023 79 245 0.0 5.0 0.00 0.00 0.00 81 1012.9
20260904074554 79 205 0.0 8.0 0.00 0.00 0.00 81 1013.0
20260904074017 79 210 1.0 8.0 0.00 0.00 0.00 81 1012.9
20260904073516 79 212 1.0 8.0 0.00 0.00 0.00 80 1012.8
20260904073039 80 0 1.0 8.0 0.00 0.00 0.00 80 1012.9
20260904072517 80 0 1.0 7.0 0.00 0.00 0.00 80 1012.9
20260904072018 80 0 1.0 7.0 0.00 0.00 0.00 80 1012.9
20260904071542 80 0 2.0 7.0 0.00 0.00 0.00 79 1013.1
20260904071020 80 191 1.0 6.0 0.00 0.00 0.00 79 1013.0
20260904070523 80 187 1.0 6.0 0.00 0.00 0.00 79 1013.1
20260904070047 80 0 1.0 6.0 0.00 0.00 0.00 78 1013.1
20260904065520 80 202 1.0 5.0 0.00 0.00 0.00 78 1013.2
20260904065017 80 204 1.0 6.0 0.00 0.00 0.00 78 1013.3
20260904064544 80 0 0.0 7.0 0.00 0.00 0.00 77 1013.3
20260904064019 80 131 1.0 7.0 0.00 0.00 0.00 77 1013.4
20260904063521 80 0 0.0 8.0 0.00 0.00 0.00 77 1013.4
20260904063037 80 0 1.0 8.0 0.00 0.00 0.00 76 1013.2
20260904062519 80 202 2.0 7.0 0.00 0.00 0.00 76 1013.3
20260904062019 80 204 0.0 5.0 0.00 0.00 0.00 76 1013.2
20260904061549 80 0 1.0 8.0 0.00 0.00 0.00 75 1013.3
20260904061019 80 198 1.0 8.0 0.00 0.00 0.00 75 1013.4
20260904060520 80 193 2.0 8.0 0.00 0.00 0.00 75 1013.4
20260904060038 81 0 0.0 8.0 0.00 0.00 0.00 75 1013.3
20260904055519 81 179 2.0 7.0 0.00 0.00 0.00 75 1013.4
20260904055020 81 212 2.0 9.0 0.00 0.00 0.00 74 1013.4
20260904054541 81 225 2.0 12.0 0.00 0.00 0.00 74 1013.4
20260904054020 81 127 3.0 12.0 0.00 0.00 0.00 74 1013.4
20260904053523 81 222 1.0 12.0 0.00 0.00 0.00 74 1013.6
20260904053039 81 213 4.0 10.0 0.00 0.00 0.00 74 1013.3
20260904052519 81 208 1.0 6.0 0.00 0.00 0.00 74 1013.3
20260904052021 81 0 1.0 7.0 0.00 0.00 0.00 74 1013.2
20260904051548 81 0 1.0 8.0 0.00 0.00 0.00 74 1013.3
20260904051020 81 216 2.0 10.0 0.00 0.00 0.00 74 1013.3
20260904050517 81 206 3.0 10.0 0.00 0.00 0.00 74 1013.4
20260904050041 81 202 2.0 8.0 0.00 0.00 0.00 74 1013.2
20260904045521 81 217 3.0 9.0 0.00 0.00 0.00 73 1013.2
20260904045018 81 151 1.0 10.0 0.00 0.00 0.00 73 1013.1
20260904044537 81 0 1.0 16.0 0.00 0.00 0.00 72 1013.1
20260904044018 81 208 3.0 16.0 0.00 0.00 0.00 72 1013.0
20260904043520 82 0 1.0 8.0 0.00 0.00 0.00 72 1013.2
20260904043039 82 173 2.0 8.0 0.00 0.00 0.00 71 1013.2
20260904042517 82 210 3.0 10.0 0.00 0.00 0.00 71 1013.1
20260904042017 82 210 2.0 10.0 0.00 0.00 0.00 71 1013.2
20260904041544 82 202 1.0 9.0 0.00 0.00 0.00 71 1013.3
20260904041017 82 188 0.0 10.0 0.00 0.00 0.00 70 1013.2
20260904040523 82 182 3.0 10.0 0.00 0.00 0.00 70 1013.3
20260904040037 82 234 4.0 9.0 0.00 0.00 0.00 70 1013.3
20260904035519 82 236 3.0 9.0 0.00 0.00 0.00 69 1013.3
20260904035019 82 143 4.0 10.0 0.00 0.00 0.00 68 1013.3
20260904034549 82 200 2.0 10.0 0.00 0.00 0.00 68 1013.4
20260904034019 82 166 1.0 7.0 0.00 0.00 0.00 68 1013.4
20260904033517 82 191 1.0 11.0 0.00 0.00 0.00 68 1013.3
20260904033041 82 184 4.0 11.0 0.00 0.00 0.00 68 1013.3
20260904032518 82 172 4.0 10.0 0.00 0.00 0.00 68 1013.5
20260904032018 82 231 4.0 9.0 0.00 0.00 0.00 67 1013.5
20260904031542 82 170 4.0 13.0 0.00 0.00 0.00 67 1013.4
20260904031020 83 212 4.0 13.0 0.00 0.00 0.00 66 1013.3
20260904030518 83 238 3.0 10.0 0.00 0.00 0.00 66 1013.2
20260904030036 83 177 2.0 5.0 0.00 0.00 0.00 66 1013.2
20260904025517 83 193 1.0 9.0 0.00 0.00 0.00 66 1013.1
20260904025020 83 206 3.0 9.0 0.00 0.00 0.00 66 1012.8
20260904024538 83 0 2.0 8.0 0.00 0.00 0.00 66 1012.7
20260904024020 83 198 1.0 10.0 0.00 0.00 0.00 66 1012.7
20260904023518 83 153 4.0 11.0 0.00 0.00 0.00 67 1012.7
20260904023036 83 203 3.0 11.0 0.00 0.00 0.00 68 1012.7
20260904022520 83 156 4.0 12.0 0.00 0.00 0.00 69 1012.6
20260904022021 83 198 4.0 12.0 0.00 0.00 0.00 70 1012.5
20260904021537 83 188 4.0 13.0 0.00 0.00 0.00 71 1012.5
20260904021021 84 194 3.0 15.0 0.00 0.00 0.00 71 1012.5
20260904020517 84 246 4.0 15.0 0.00 0.00 0.00 71 1012.3
20260904020036 84 177 2.0 8.0 0.00 0.00 0.00 72 1012.3
20260904015522 84 177 3.0 10.0 0.00 0.00 0.00 71 1012.3
20260904015017 84 216 2.0 10.0 0.00 0.00 0.00 71 1012.3
20260904014538 84 179 2.0 10.0 0.00 0.00 0.00 70 1012.1
20260904014020 84 212 3.0 10.0 0.00 0.00 0.00 70 1012.0
20260904013518 84 174 4.0 13.0 0.00 0.00 0.00 70 1012.0
20260904013036 85 221 4.0 13.0 0.00 0.00 0.00 69 1011.9
20260904012529 85 210 1.0 10.0 0.00 0.00 0.00 69 1011.9
20260904012020 85 225 4.0 12.0 0.00 0.00 0.00 68 1011.8
20260904011559 85 0 3.0 12.0 0.00 0.00 0.00 68 1011.9
20260904011019 86 198 3.0 9.0 0.00 0.00 0.00 66 1011.9
20260904010520 86 188 2.0 12.0 0.00 0.00 0.00 63 1011.9
20260904010043 86 0 3.0 12.0 0.00 0.00 0.00 62 1011.9
20260904005520 86 156 3.0 10.0 0.00 0.00 0.00 62 1011.9
20260904005017 86 186 2.0 10.0 0.00 0.00 0.00 63 1011.9
20260904004537 86 206 2.0 11.0 0.00 0.00 0.00 64 1012.0
20260904004024 87 164 5.0 11.0 0.00 0.00 0.00 64 1011.8
20260904003525 87 245 2.0 10.0 0.00 0.00 0.00 64 1011.8
20260904003037 87 96 2.0 10.0 0.00 0.00 0.00 64 1011.8
20260904002519 87 198 1.0 8.0 0.00 0.00 0.00 64 1011.7
20260904002018 87 225 2.0 8.0 0.00 0.00 0.00 64 1011.7
20260904001539 87 189 1.0 13.0 0.00 0.00 0.00 64 1011.7
20260904001019 88 135 2.0 13.0 0.00 0.00 0.00 64 1011.6
20260904000520 88 177 4.0 12.0 0.00 0.00 0.00 63 1011.5
20260904000043 88 222 4.0 10.0 0.00 0.00 0.00 63 1011.6
20260903235520 88 0 2.0 10.0 0.00 0.01 0.00 63 1011.6
20260903235017 88 210 2.0 12.0 0.00 0.01 0.00 63 1011.5
20260903234544 89 108 5.0 12.0 0.00 0.01 0.00 62 1011.6
20260903234020 89 114 2.0 11.0 0.00 0.01 0.00 62 1011.4
20260903233521 89 131 3.0 12.0 0.00 0.01 0.00 62 1011.3
20260903233041 89 230 5.0 12.0 0.00 0.01 0.00 62 1011.2
20260903232521 89 141 2.0 8.0 0.00 0.01 0.00 61 1011.3
20260903232020 90 214 1.0 8.0 0.00 0.01 0.00 60 1011.2
20260903231544 90 104 2.0 13.0 0.00 0.01 0.00 60 1011.3
20260903231020 90 139 4.0 13.0 0.00 0.01 0.00 59 1011.3
20260903230518 90 187 3.0 12.0 0.00 0.01 0.00 58 1011.3
20260903230044 90 200 2.0 12.0 0.00 0.01 0.00 58 1011.3
20260903225520 90 154 3.0 9.0 0.00 0.01 0.00 57 1011.3
20260903225020 91 164 4.0 8.0 0.00 0.01 0.00 57 1011.2
20260903224543 91 110 2.0 14.0 0.00 0.01 0.00 57 1011.2
20260903224022 91 230 4.0 14.0 0.00 0.01 0.00 57 1011.3
20260903223520 91 203 1.0 10.0 0.00 0.01 0.00 58 1011.3
20260903223036 92 191 3.0 9.0 0.00 0.01 0.00 57 1011.3
20260903222518 92 124 3.0 10.0 0.00 0.01 0.00 56 1011.3
20260903222018 91 169 4.0 11.0 0.00 0.01 0.00 57 1011.2
20260903221540 92 131 2.0 11.0 0.00 0.01 0.00 57 1011.3
20260903221019 91 225 3.0 9.0 0.00 0.01 0.00 58 1011.2
20260903220517 92 0 1.0 11.0 0.00 0.01 0.00 58 1011.1
20260903220040 91 233 3.0 11.0 0.00 0.01 0.00 58 1011.3
20260903215518 91 0 2.0 8.0 0.00 0.01 0.00 60 1011.4
20260903215018 90 146 3.0 8.0 0.00 0.01 0.00 60 1011.5
20260903214542 90 131 2.0 9.0 0.00 0.01 0.00 60 1011.6
20260903214019 91 180 4.0 9.0 0.00 0.01 0.00 59 1011.6
20260903213521 93 216 2.0 10.0 0.00 0.01 0.00 57 1011.7
20260903213052 92 114 4.0 11.0 0.00 0.01 0.00 58 1011.7
20260903212519 92 129 2.0 11.0 0.00 0.01 0.00 59 1011.5
20260903212018 91 0 3.0 13.0 0.00 0.01 0.00 59 1011.6
20260903211545 91 113 5.0 13.0 0.00 0.01 0.00 59 1011.6
20260903211020 92 221 4.0 13.0 0.00 0.01 0.00 59 1011.8
20260903210518 93 221 3.0 14.0 0.00 0.01 0.00 57 1011.8
20260903210040 93 208 3.0 14.0 0.00 0.01 0.00 57 1011.7
20260903205522 92 110 2.0 13.0 0.00 0.01 0.00 60 1011.8
20260903205018 92 208 2.0 8.0 0.00 0.01 0.00 59 1011.8
20260903204538 92 217 1.0 12.0 0.00 0.01 0.00 59 1011.8
20260903204016 90 205 3.0 12.0 0.00 0.01 0.00 61 1011.9
20260903203525 91 212 3.0 11.0 0.00 0.01 0.00 60 1012.1
20260903203103 91 133 4.0 11.0 0.00 0.01 0.00 61 1012.1
20260903202523 90 0 3.0 10.0 0.00 0.01 0.00 62 1012.1
20260903202020 90 226 3.0 10.0 0.00 0.01 0.00 62 1012.1
20260903201540 89 212 5.0 10.0 0.00 0.01 0.00 64 1012.2
20260903201019 89 216 3.0 9.0 0.00 0.01 0.00 65 1012.4
20260903200520 87 211 4.0 10.0 0.00 0.01 0.00 66 1012.4
20260903200038 87 159 4.0 10.0 0.00 0.01 0.00 66 1012.5